Flag for U.S.A. Weather past 2 weeks in Memphis, Tennessee, U.S.A.

Now
38 °F

Light rain. Fog.


Feels Like: 31 °F
Forecast: 37 / 48 °F
Wind: 9 mph from East

Location: Memphis International Airport

Current Time: Dec 18, 2014 at 5:15:44 AM

Latest Report: Dec 18, 2014 at 3:54 AM


Visibility: 5 mi

Pressure: 30.22 "Hg

Humidity: 86%

Dew point: 34 °F

Location of MemphisLocation

Historic Weather in Memphis — Graph

°F

Memphis temperature yesterday

Maximum temperature yesterday: 44 °F (at 12:54 PM)
Minimum temperature yesterday: 32 °F (at 2:54 AM)
Average temperature yesterday: 38 °F

Past Weeks' High & Low Weather Summary

 TemperatureHumidityPressure
High67 °F (Dec 5, 2:54 PM)94% (Dec 5, 5:03 PM)30.48 "Hg (Dec 5, 5:03 PM)
Low32 °F (Dec 17, 2:54 AM)48% (Dec 12, 1:54 PM)29.76 "Hg (Dec 15, 3:54 PM)
Average48 °F73%30.23 "Hg
* Reported Dec 3 3:54 AM — Dec 18 3:54 AM, Memphis, Weather by CustomWeather, © 2014

Note: Actual official high and low records may vary slightly from our data, if they occured in-between our weather recording intervals... More about our weather records

Advertising

Memphis weather history for previous 24 hours

 ConditionsComfort  
Time TempWeatherWind HumidityBarometerVisibility
3:54 AM
Dec 18
38 °FLight rain. Fog.9 mph86%30.22 "Hg5 mi
2:54 AM37 °FLight rain. Fog.6 mph89%30.25 "Hg5 mi
1:54 AM38 °FLight rain. Fog.5 mph86%30.29 "Hg6 mi
12:54 AM39 °FOvercast.7 mph79%30.28 "Hg7 mi
11:54 PM
Dec 17
40 °FLight rain. Mostly cloudy.9 mph77%30.27 "Hg10 mi
10:54 PM40 °FOvercast.7 mph73%30.32 "Hg10 mi
9:54 PM40 °FLight rain. Overcast.10 mph70%30.23 "Hg10 mi
8:54 PM41 °FOvercast.10 mph67%30.23 "Hg10 mi
7:54 PM40 °FOvercast.10 mph73%30.24 "Hg10 mi
6:54 PM40 °FMostly cloudy.5 mph73%30.27 "Hg10 mi
5:54 PM40 °FOvercast.8 mph73%30.25 "Hg10 mi
4:54 PM40 °FMostly cloudy.7 mph73%30.27 "Hg10 mi
3:54 PM42 °FOvercast.7 mph71%30.27 "Hg10 mi
2:54 PM44 °FOvercast.5 mph65%30.26 "Hg10 mi
1:54 PM44 °FOvercast.No wind63%30.27 "Hg10 mi
12:54 PM44 °FOvercast.3 mph63%30.28 "Hg10 mi
11:54 AM43 °FOvercast.No wind65%30.30 "Hg10 mi
10:54 AM40 °FOvercast.2 mph76%30.34 "Hg10 mi
9:54 AM39 °FOvercast.5 mph73%30.35 "Hg10 mi
8:54 AM37 °FHigh level clouds.7 mph79%30.35 "Hg10 mi
7:54 AM34 °FPartly sunny.7 mph82%30.32 "Hg10 mi
6:54 AM33 °FPartly sunny.5 mph85%30.30 "Hg10 mi
5:54 AM33 °FPassing clouds.7 mph82%30.31 "Hg10 mi
Weather by CustomWeather, © 2014

See weather overviewHow to use our weather pages